{"data":{"norad_id":51846,"epoch":"2026-06-25T00:44:44.036736Z","epoch_age_seconds":7676153,"freshness":"OLD","line1":"1 51846U 22019Y   26176.03106524  .06214637  24897-5  89624-3 0  9997","line2":"2 51846  97.3536 274.0693 0013900 262.0515  97.9204 16.34468744241212","mean_motion":16.34468744,"eccentricity":0.00139,"inclination_deg":97.3536,"raan_deg":274.0693,"arg_perigee_deg":262.0515,"mean_anomaly_deg":97.9204,"bstar":0.00089624,"rev_number":24121,"period_min":88.102021239997,"perigee_km":171.44130389278,"apogee_km":189.67447568639,"semimajor_km":6558.6948897896,"source":"CELESTRAK","updated_at":"2026-06-26T09:00:12.956338Z"}}